Location: Bord�res
(43.2000°N, 0.2167°W)
Time: 14:58:24
(UTC+00:00)

Cosmos 2219 Rocket - Pass Details

Date: 03 March 2021
Orbit: 826 x 848 km, 71.0° (Epoch: 13 April)

Event Time Altitude Azimuth Distance (km) Brightness Sun altitude
Rises 19:22:25 0° 182° (S) 3,350 5.3 -17.1°
Reaches altitude 10° 19:24:56 10° 176° (S) 2,422 4.5 -17.6°
Maximum altitude 19:30:08 42° 107° (ESE) 1,165 2.4 -18.5°
Drops below altitude 10° 19:35:22 10° 38° (NE) 2,447 4.3 -19.5°
Sets 19:37:55 0° 31° (NNE) 3,388 5.1 -19.9°
